[[{"header":{"parameterUnit":"m.s-1","parameterCategory":1,"la1":30.2991,"la2":30.254,"lo1":-89.0895,"lo2":-89.0444,"dy":0.0017,"dx":0.0017,"nx":28,"ny":28,"refTime":"2024-09-27T21:00:00:Z","depth":0,"parameterNumber":2,"parameterNumberName":"U-component_of_WINDS"},"data":[0,0,0,0,0,0,0,0,0,0,0,0,0,0,0,0,0,0,0,0,0,0,0,0,0,0,0,0,0,0,0,0,0,0,0,0,0,0,0,0,0,0,0,0,0,0,0,0,0,0,0,0,0,0,0,0,0,0,5.2767,5.277,0,5.3016,5.3019,5.3022,5.2982,5.2977,5.2973,5.2969,5.3228,5.3239,5.325,0,0,0,0,0,0,0,0,0,0,0,0,0,5.2257,5.2267,5.2767,5.277,5.2773,5.3016,5.3019,5.3023,5.2982,5.2977,5.2972,5.2967,5.3225,5.3238,5.3251,0,0,0,0,0,0,0,0,0,0,0,0,0,5.249,5.227,5.2766,5.2782,5.2786,5.3015,5.3019,5.3023,5.2983,5.2977,5.297,5.2964,5.322,5.3236,5.3252,5.3483,0,0,5.3303,5.331,0,0,0,0,0,0,0,0,5.2477,5.2509,5.2777,5.2781,5.2786,5.2961,5.2935,5.3178,5.2985,5.2909,5.2969,5.2961,5.3145,5.3167,5.3228,5.3495,5.3506,5.3304,5.3314,5.3321,5.3326,0,0,0,0,0,0,0,5.2461,5.2498,5.2865,5.278,5.2786,5.2777,5.2803,5.298,5.306,5.2915,5.2912,5.2942,5.3146,5.3212,5.3234,5.351,5.3304,5.3318,5.3328,5.3335,5.3975,5.3981,0,0,0,0,0,0,5.244,5.2485,5.2858,5.2873,5.2612,5.2792,5.2821,5.2911,5.3058,5.3074,5.2947,5.2939,5.3188,5.3215,5.3243,5.3519,5.3321,5.3336,5.3346,5.3968,5.3976,5.3984,0,0,0,0,0,0,5.2429,5.2473,5.2847,5.2678,5.2725,5.2807,5.291,5.292,5.2986,5.3083,5.3097,5.3,5.3184,5.322,5.3422,5.3528,5.3344,5.3358,5.3959,5.397,5.398,5.4076,0,0,0,0,0,0,5.2414,5.247,5.2558,5.268,5.2734,5.3023,5.2916,5.2929,5.3014,5.3005,5.3136,5.3151,5.3181,5.3398,5.3439,5.3547,5.3371,5.395,5.3964,5.3977,5.4064,5.4088,5.411,0,0,0,0,0,5.2396,5.2577,5.2562,5.2608,5.2846,5.3029,5.306,5.3089,5.3022,5.3111,5.3173,5.3147,5.351,5.3419,5.3464,5.3579,5.3943,5.396,5.3976,5.4053,5.4084,5.4109,0,0,0,0,0,0,5.2466,5.2593,5.2579,5.2804,5.2905,5.3021,5.3135,5.3121,5.3245,5.3232,5.3265,5.3295,5.3499,5.356,5.3457,5.3808,5.3717,5.3743,5.3761,5.3791,5.3813,5.3794,5.3385,0,0,0,0,0,5.2507,5.2644,5.2748,5.2937,5.2988,5.3053,5.3134,5.3147,5.3255,5.3298,5.3375,5.348,5.3618,5.3708,5.384,5.4072,5.4099,5.4174,5.4197,5.4215,5.4237,5.4361,5.4395,5.4037,5.4037,5.4037,0,0,5.2595,5.2681,5.2766,5.2953,5.3033,5.3174,5.309,5.3243,5.3348,5.3322,5.3516,5.3576,5.3697,5.3914,5.4014,5.3971,5.4342,5.4236,5.425,5.4262,5.4381,5.4415,5.4445,5.4048,5.4046,5.4044,0,0,5.2825,5.2905,5.3069,5.3151,5.3272,5.3314,5.3353,5.3471,5.3509,5.3705,5.3687,5.3813,5.405,5.4135,5.4209,5.4469,5.4449,5.4512,5.4632,5.4753,5.4781,5.4806,5.4896,5.4928,5.4533,5.4533,5.4534,0,5.2919,5.3129,5.3156,5.331,5.3392,5.3373,5.3538,5.3617,5.3777,5.3834,5.3783,5.4077,5.4158,5.4393,5.4456,5.4518,5.4563,5.4496,5.4774,5.48,5.4824,5.491,5.4944,5.454,5.4539,5.4539,5.4538,0,5.3236,5.3383,5.3501,5.3652,5.3748,5.3908,5.3958,5.4052,5.4057,5.4103,5.4301,5.4396,5.4546,5.4603,5.4611,5.484,5.4809,5.4767,5.4675,5.4864,5.4945,5.4979,5.4549,5.4547,5.4545,5.4543,0,0,5.3519,5.368,5.3723,5.379,5.3922,5.4036,5.4194,5.4338,5.4417,5.4527,5.466,5.4859,5.482,5.4904,5.4921,5.5028,5.5224,5.4972,5.4975,5.5013,5.5478,5.5507,5.5545,5.5212,5.5218,5.5223,5.5467,0,5.3759,5.4036,5.4064,5.4312,5.4446,5.4429,5.4566,5.4662,5.471,5.4831,5.4884,5.5023,5.4962,5.5012,5.5117,5.5178,5.5317,5.5161,5.5334,5.534,5.5302,5.5588,5.5621,5.5846,5.5499,5.5505,5.5509,0,5.4077,5.4193,5.4455,5.4564,5.4622,5.4745,5.4877,5.4994,5.5102,5.5128,5.5221,5.5224,5.5386,5.529,5.5513,5.5406,5.5479,5.5519,5.5528,5.5544,5.5434,5.5609,5.5919,5.5952,5.556,5.5556,5.5552,0,5.4253,5.4475,5.4659,5.4718,5.4852,5.4938,5.4998,5.5099,5.5183,5.53,5.5354,5.5489,5.5563,5.5667,5.5705,5.5632,5.5926,5.5833,5.5952,5.5951,5.6013,5.6009,5.6336,5.6064,5.6064,5.6063,5.6062,0,5.4517,5.4677,5.4739,5.4852,5.503,5.506,5.5236,5.5292,5.5381,5.5505,5.55,5.5616,5.566,5.5783,5.5815,5.5993,5.6028,5.6053,5.6059,5.6053,5.6049,5.6099,5.6084,5.6072,5.607,5.6068,5.6067,0,5.4743,5.4792,5.499,5.51,5.5131,5.5257,5.5351,5.546,5.5504,5.566,5.5699,5.577,5.5915,5.5963,5.614,5.616,5.6367,5.6362,5.633,5.6331,5.6445,5.6433,5.6815,5.6866,5.6563,5.6565,5.6568,0,5.4908,5.5029,5.5151,5.5232,5.5294,5.5426,5.551,5.5545,5.5633,5.5763,5.5856,5.5999,5.6115,5.6347,5.6415,5.6549,5.6544,5.6669,5.6564,5.6553,5.6543,5.6534,5.6545,5.6688,5.6691,5.6694,5.6696,0,5.5193,5.521,5.5332,5.5461,5.5561,5.5666,5.5766,5.5834,5.5882,5.5982,5.6128,5.6218,5.6396,5.6537,5.6673,5.6736,5.6724,5.6728,5.6762,5.6755,5.6731,5.6743,5.6381,5.6719,5.6717,5.6715,5.6714,5.6713,5.5392,5.5498,5.5599,5.5733,5.5812,5.5906,5.6012,5.6069,5.6191,5.6337,5.635,5.6508,5.661,5.6791,5.686,5.6984,5.6949,5.6999,5.7011,5.7022,5.703,5.6713,5.7009,5.7009,5.7008,5.7008,5.7007,0,5.5675,5.5738,5.5862,5.6001,5.6106,5.6084,5.6194,5.6284,5.6422,5.6518,5.6631,5.6798,5.6934,5.7012,5.7148,5.7232,5.723,5.7267,5.726,5.7274,5.7055,5.701,5.7266,5.7266,5.7266,5.7266,5.7266,5.7266,5.5834,5.6011,5.604,5.6256,5.6318,5.6471,5.6535,5.662,5.6697,5.6883,5.6995,5.7044,5.7133,5.7275,5.7399,5.7418,5.7467,5.7507,5.7523,5.7316,5.729,5.7264,5.7222,5.7519,5.7519,5.7731,5.7733,5.7735]},{"header":{"parameterUnit":"m.s-1","parameterCategory":1,"la1":30.2991,"la2":30.254,"lo1":-89.0895,"lo2":-89.0444,"dy":0.0017,"dx":0.0017,"nx":28,"ny":28,"refTime":"2024-09-27T21:00:00:Z","depth":0,"parameterNumber":3,"parameterNumberName":"V-component_of_WINDS"},"data":[0,0,0,0,0,0,0,0,0,0,0,0,0,0,0,0,0,0,0,0,0,0,0,0,0,0,0,0,0,0,0,0,0,0,0,0,0,0,0,0,0,0,0,0,0,0,0,0,0,0,0,0,0,0,0,0,0,0,2.3651,2.3651,0,2.3691,2.3691,2.3692,2.3649,2.3648,2.3646,2.3645,2.3685,2.3688,2.369,0,0,0,0,0,0,0,0,0,0,0,0,0,2.3536,2.3538,2.3651,2.3651,2.3652,2.3691,2.3691,2.3692,2.365,2.3648,2.3646,2.3644,2.3684,2.3687,2.369,0,0,0,0,0,0,0,0,0,0,0,0,0,2.3582,2.3539,2.3651,2.3635,2.3634,2.3691,2.3691,2.3692,2.365,2.3648,2.3645,2.3643,2.3683,2.3687,2.3691,2.3764,0,0,2.3703,2.3704,0,0,0,0,0,0,0,0,2.3579,2.3586,2.3637,2.3637,2.3636,2.3663,2.3665,2.3716,2.3651,2.3644,2.3645,2.3642,2.368,2.3684,2.3696,2.3766,2.3767,2.3703,2.3705,2.3707,2.3708,0,0,0,0,0,0,0,2.3576,2.3584,2.3666,2.3638,2.3637,2.3626,2.363,2.3675,2.3675,2.3645,2.3642,2.3647,2.3679,2.3693,2.3697,2.3768,2.3703,2.3706,2.3709,2.371,2.3897,2.3899,0,0,0,0,0,0,2.3575,2.3582,2.3665,2.3668,2.3601,2.363,2.3634,2.3656,2.3674,2.3675,2.3649,2.3645,2.3687,2.3693,2.3698,2.3784,2.3707,2.3711,2.3713,2.3894,2.3898,2.39,0,0,0,0,0,0,2.3572,2.3583,2.3664,2.3624,2.3633,2.3635,2.366,2.3658,2.3673,2.3678,2.3677,2.3664,2.3686,2.3693,2.3747,2.3785,2.3712,2.3716,2.3891,2.3895,2.3899,2.3956,0,0,0,0,0,0,2.3569,2.3582,2.361,2.3625,2.3636,2.3713,2.3662,2.3661,2.368,2.3674,2.3691,2.3692,2.3684,2.3742,2.3751,2.3789,2.3719,2.3888,2.3893,2.3898,2.3951,2.3962,2.3971,0,0,0,0,0,2.3565,2.3625,2.3612,2.3622,2.3671,2.3715,2.3721,2.3712,2.3683,2.3711,2.3714,2.3691,2.3779,2.3748,2.3758,2.3797,2.3886,2.3892,2.3897,2.3947,2.396,2.397,0,0,0,0,0,0,2.3615,2.3627,2.3612,2.3679,2.3696,2.3708,2.3743,2.3726,2.3752,2.3746,2.3732,2.3736,2.3794,2.3801,2.3766,2.3868,2.3827,2.3836,2.3861,2.3874,2.3883,2.3881,2.3722,0,0,0,0,0,2.3634,2.3669,2.3677,2.3735,2.3744,2.3742,2.3761,2.3752,2.3769,2.3777,2.3784,2.3801,2.3832,2.3853,2.3883,2.3952,2.3954,2.3983,2.3993,2.4001,2.4009,2.4044,2.4057,2.392,2.392,2.392,0,0,2.3673,2.3683,2.3706,2.3745,2.3757,2.3793,2.3749,2.3789,2.3815,2.3783,2.3834,2.384,2.3859,2.392,2.3948,2.3928,2.4047,2.4009,2.4015,2.4018,2.4052,2.4065,2.4076,2.3924,2.3923,2.3922,0,0,2.3762,2.3774,2.3823,2.3836,2.3855,2.3853,2.3865,2.3879,2.3882,2.3933,2.3909,2.394,2.3994,2.4008,2.4022,2.4115,2.4095,2.4125,2.4177,2.4212,2.4222,2.4232,2.4264,2.4276,2.4132,2.4132,2.4132,0,2.3808,2.3862,2.385,2.3892,2.3909,2.388,2.3929,2.3942,2.397,2.3982,2.3959,2.4026,2.4037,2.4101,2.4123,2.4136,2.4148,2.4123,2.4222,2.4231,2.424,2.4271,2.4283,2.4136,2.4135,2.4135,2.4135,0,2.3917,2.3954,2.3991,2.4019,2.404,2.4085,2.4079,2.4102,2.409,2.4091,2.4143,2.4154,2.4185,2.4199,2.4189,2.4261,2.4248,2.4224,2.4183,2.4257,2.4285,2.4297,2.4141,2.414,2.4139,2.4138,0,0,2.4039,2.4059,2.4072,2.4084,2.4103,2.4131,2.4174,2.4204,2.4223,2.4243,2.4278,2.4324,2.4301,2.4318,2.4308,2.4339,2.441,2.431,2.431,2.4328,2.449,2.4508,2.4522,2.4397,2.4399,2.4401,2.4488,0,2.4128,2.4204,2.4194,2.4266,2.43,2.4272,2.431,2.4325,2.4326,2.4354,2.4354,2.4387,2.4355,2.4364,2.4393,2.4396,2.4443,2.4389,2.4429,2.4431,2.4425,2.4537,2.4557,2.4638,2.4499,2.4501,2.4503,0,2.4243,2.4267,2.4342,2.4354,2.4368,2.4402,2.4427,2.4455,2.4471,2.4469,2.4487,2.4471,2.4513,2.4472,2.4529,2.4493,2.4508,2.4511,2.4514,2.4518,2.4471,2.4543,2.4664,2.4677,2.452,2.4519,2.4518,0,2.4324,2.4375,2.4426,2.4437,2.4452,2.4476,2.4484,2.4497,2.4515,2.4538,2.4549,2.4576,2.4591,2.4611,2.4603,2.4574,2.4662,2.4619,2.4661,2.4661,2.4681,2.468,2.4806,2.4691,2.4691,2.4691,2.4691,0,2.4424,2.4472,2.4462,2.4494,2.4545,2.4533,2.4584,2.4588,2.46,2.4631,2.4609,2.4638,2.4626,2.4654,2.4648,2.4696,2.4703,2.4702,2.47,2.4704,2.4704,2.4714,2.4708,2.4694,2.4693,2.4693,2.4692,0,2.4524,2.452,2.4574,2.4584,2.4587,2.4625,2.4633,2.4662,2.466,2.47,2.4709,2.4707,2.4739,2.4733,2.4768,2.4764,2.4824,2.4815,2.4819,2.4816,2.4858,2.4854,2.4995,2.5012,2.4887,2.4888,2.4889,0,2.4588,2.4624,2.4637,2.4656,2.4666,2.4697,2.4715,2.4704,2.4723,2.4743,2.477,2.48,2.4824,2.4876,2.4878,2.4905,2.4896,2.4943,2.4899,2.4902,2.4896,2.4893,2.4896,2.4952,2.4953,2.4954,2.4955,0,2.4703,2.4698,2.4726,2.4752,2.4774,2.4794,2.4812,2.4829,2.4819,2.4842,2.4874,2.4893,2.4929,2.4959,2.4983,2.499,2.4971,2.4969,2.498,2.4985,2.4985,2.4985,2.4842,2.4966,2.4965,2.4964,2.4964,2.4963,2.4786,2.4816,2.483,2.486,2.4872,2.4889,2.4917,2.4918,2.4946,2.4974,2.4965,2.5002,2.5016,2.5047,2.5057,2.5085,2.5067,2.5083,2.5087,2.5091,2.5096,2.4981,2.5089,2.5089,2.5089,2.5088,2.5088,0,2.4898,2.4906,2.4934,2.4959,2.4983,2.4963,2.4981,2.5003,2.5035,2.505,2.5073,2.511,2.5139,2.5142,2.5169,2.5191,2.5182,2.5198,2.5196,2.5198,2.511,2.5098,2.5204,2.5204,2.5204,2.5204,2.5204,2.5204,2.496,2.5009,2.5006,2.506,2.5067,2.5103,2.5115,2.513,2.5141,2.5184,2.5207,2.5209,2.5219,2.5246,2.5271,2.5271,2.5282,2.53,2.5297,2.5216,2.5204,2.5193,2.5181,2.5303,2.5303,2.5382,2.5383,2.5383]}]]